Stations météo

réclame
Mon MeteoGroup
Herrera del Duque, Espagne (8264): Température de l'air & dewpoint: 12.12.2017 03:00:00 - 18.12.2017 03:00:00 (CET)Herrera del Duque, Espagne (8264): Vitesse du vent & gusts: 12.12.2017 03:00:00 - 18.12.2017 03:00:00 (CET)Herrera del Duque, Espagne (8264): Direction du vent: 12.12.2017 03:00:00 - 18.12.2017 03:00:00 (CET)Herrera del Duque, Espagne (8264): reduced air pressure: 12.12.2017 03:00:00 - 18.12.2017 03:00:00 (CET)Herrera del Duque, Espagne (8264): visibility: 12.12.2017 03:00:00 - 18.12.2017 03:00:00 (CET)Herrera del Duque, Espagne (8264): Ensoleillement: 12.12.2017 03:00:00 - 18.12.2017 03:00:00 (CET)Herrera del Duque, Espagne (8264): Quantités de précipitations: 12.12.2017 03:00:00 - 18.12.2017 03:00:00 (CET)
Date & Time tt [°C] td [°C] ff [km/h] ff [knt] fx [km/h] fx [knt] dd ppp [hPa] vv [km] sd [min] rr [mm]
18.12.2017 03:00:00 2,6 -2,0 4 2 8 4 SW 1034,5 20 0 0,0
18.12.2017 02:00:00 2,6 -2,2 4 2 6 4 SW 1034,8 20 0 0,0
18.12.2017 01:00:00 2,0 -2,0 2 1 10 5 ESE 1035,0 20 0 -
18.12.2017 00:00:00 2,6 -2,2 2 1 7 4 SSE 1034,4 20 0 0,0
17.12.2017 23:00:00 2,8 -2,2 2 1 10 5 SSW 1034,1 20 0 0,0
17.12.2017 22:00:00 3,6 -3,0 3 2 5 3 SSW 1033,7 20 0 0,0
17.12.2017 21:00:00 4,1 -3,6 1 1 8 5 WSW 1033,2 18 0 0,0
17.12.2017 20:00:00 6,3 -3,6 1 1 10 5 E 1032,3 20 0 0,0
17.12.2017 19:00:00 7,1 -3,6 4 2 9 5 ESE 1031,9 20 0 -
17.12.2017 18:00:00 9,0 -5,1 7 4 18 10 E 1030,7 20 25 0,0
17.12.2017 17:00:00 11,4 -4,5 12 6 19 11 NNE 1030,0 20 60 0,0
17.12.2017 16:00:00 11,7 -3,0 6 4 14 8 ENE 1029,3 20 60 0,0
17.12.2017 15:00:00 11,5 -2,7 6 3 20 11 NNW 1029,5 20 60 0,0
17.12.2017 14:00:00 10,6 -1,4 9 5 21 11 NW 1030,2 20 60 0,0
17.12.2017 13:00:00 9,6 -2,5 14 7 24 13 ENE 1031,1 20 60 -
17.12.2017 12:00:00 8,1 -1,4 5 3 9 5 NNE 1032,2 20 60 0,0
17.12.2017 11:00:00 5,0 -0,7 3 2 9 5 NW 1032,7 20 60 0,0
17.12.2017 10:00:00 2,3 -1,2 6 3 11 6 WSW 1032,8 20 54 0,0
17.12.2017 09:00:00 -0,3 -2,5 4 2 11 6 S 1032,4 20 0 0,0
17.12.2017 08:00:00 0,2 -2,5 2 1 6 3 S 1031,6 20 0 0,0
17.12.2017 07:00:00 0,4 -2,2 4 2 7 4 SSE 1031,0 20 0 -
17.12.2017 06:00:00 0,6 -2,0 1 1 8 4 SSW 1030,5 20 0 0,0
17.12.2017 05:00:00 1,1 -1,7 3 2 6 3 SSW 1030,6 20 0 0,0
17.12.2017 04:00:00 1,6 -1,7 6 3 10 5 WSW 1030,2 20 0 0,0
17.12.2017 03:00:00 1,9 -2,0 2 1 6 3 SW 1029,7 20 0 0,0
17.12.2017 02:00:00 1,8 -1,7 2 1 5 3 E 1029,6 20 0 0,0
17.12.2017 01:00:00 2,5 -1,7 2 1 9 5 ESE 1029,3 20 0 -
17.12.2017 00:00:00 3,8 -1,7 6 3 11 6 W 1029,0 20 0 0,0
16.12.2017 23:00:00 4,4 -2,0 8 4 14 8 N 1028,2 20 0 0,0
16.12.2017 22:00:00 4,9 -1,4 3 1 9 5 NNW 1027,3 20 0 0,0
16.12.2017 21:00:00 4,6 -1,7 4 2 7 4 W 1026,7 20 0 0,0
16.12.2017 20:00:00 5,3 -1,7 3 2 6 3 W 1026,1 20 0 0,0
16.12.2017 19:00:00 6,6 -1,4 4 2 6 4 S 1025,0 20 0 -
16.12.2017 18:00:00 9,0 -2,0 4 2 19 11 NNE 1023,8 20 25 0,0
16.12.2017 17:00:00 11,5 -4,2 11 6 18 10 NNE 1022,8 20 60 0,0
16.12.2017 16:00:00 12,0 -3,9 13 7 21 11 NNE 1022,1 20 60 0,0
16.12.2017 15:00:00 11,8 -2,0 9 5 25 13 E 1022,0 20 60 0,0
16.12.2017 14:00:00 11,3 0,0 3 2 14 7 NNW 1022,6 20 60 0,0
16.12.2017 13:00:00 9,7 0,9 5 3 10 6 W 1023,2 20 60 -
16.12.2017 12:00:00 8,3 1,3 3 2 8 4 WNW 1023,7 20 60 0,0
16.12.2017 11:00:00 6,7 1,9 3 2 7 4 NW 1023,4 20 60 0,0
16.12.2017 10:00:00 4,9 1,1 0 0 5 3 N 1022,7 20 55 0,0
16.12.2017 09:00:00 1,2 -1,0 2 1 7 4 S 1022,6 20 0 0,0
16.12.2017 08:00:00 0,9 -1,4 1 1 7 4 NNW 1021,9 20 0 0,0
16.12.2017 07:00:00 1,8 -0,7 5 3 7 4 SSW 1020,9 20 0 -
16.12.2017 06:00:00 1,9 -0,7 4 2 8 4 SSE 1020,2 20 0 0,0
16.12.2017 05:00:00 2,8 -0,7 3 2 10 5 S 1019,7 20 0 0,0
16.12.2017 04:00:00 3,5 -0,5 5 3 9 5 WSW 1019,2 20 0 0,0
16.12.2017 03:00:00 4,6 -1,0 4 2 12 6 SW 1018,3 20 0 0,0
16.12.2017 02:00:00 5,6 -1,4 2 1 9 5 W 1018,0 20 0 0,0
16.12.2017 01:00:00 6,4 -1,0 3 2 15 8 ENE 1017,4 20 0 -
16.12.2017 00:00:00 7,8 -0,5 11 6 23 12 ESE 1016,4 20 0 0,0
15.12.2017 23:00:00 6,0 2,9 3 2 6 4 WSW 1016,3 20 0 0,0
15.12.2017 22:00:00 6,9 2,9 3 2 11 6 W 1015,3 20 0 0,0
15.12.2017 21:00:00 8,1 4,3 8 4 14 7 WNW 1014,4 20 0 0,0
15.12.2017 20:00:00 9,9 4,5 3 2 19 11 N 1013,8 20 0 0,0
15.12.2017 19:00:00 11,1 8,8 3 2 19 10 SW 1012,9 20 0 -
15.12.2017 18:00:00 11,5 9,4 9 5 16 9 NW 1012,2 20 0 0,0
15.12.2017 17:00:00 12,1 9,8 8 4 30 16 W 1011,6 20 0 2,0
15.12.2017 16:00:00 12,9 10,6 19 10 39 21 WNW 1011,5 7 0 1,6
15.12.2017 15:00:00 13,2 11,2 22 12 48 26 WSW 1011,4 7 0 0,4
15.12.2017 14:00:00 13,0 10,8 27 15 55 30 WSW 1012,1 4,9 0 0,8
15.12.2017 13:00:00 12,6 10,9 18 10 40 22 W 1013,0 10 0 -
15.12.2017 12:00:00 12,3 10,4 19 10 39 21 WSW 1014,2 2,9 0 0,4
15.12.2017 11:00:00 11,5 9,9 20 11 41 22 SW 1014,9 2,8 0 0,0
15.12.2017 10:00:00 11,0 9,0 13 7 32 17 WSW 1015,2 20 0 0,0
15.12.2017 09:00:00 10,9 8,8 16 8 33 18 WSW 1015,5 20 0 0,0
15.12.2017 08:00:00 10,6 8,5 12 6 25 13 W 1015,7 20 0 0,0
15.12.2017 07:00:00 10,5 8,4 14 8 37 20 WSW 1015,8 20 0 -
15.12.2017 06:00:00 10,5 8,3 19 11 41 22 WSW 1016,2 20 0 0,0
15.12.2017 05:00:00 11,0 8,4 19 10 35 19 WSW 1016,6 20 0 0,0
15.12.2017 04:00:00 11,4 8,8 20 11 41 22 W 1016,9 20 0 0,0
15.12.2017 03:00:00 11,7 9,4 22 12 44 24 W 1016,6 20 0 0,2
15.12.2017 02:00:00 11,7 9,9 23 12 45 25 WSW 1016,9 5 0 0,4
15.12.2017 01:00:00 11,8 9,9 20 11 48 26 WSW 1017,6 20 0 -
15.12.2017 00:00:00 11,9 9,8 21 11 40 22 WSW 1017,8 20 0 0,0
14.12.2017 23:00:00 12,0 10,0 18 10 36 19 WSW 1018,7 20 0 0,0
14.12.2017 22:00:00 12,1 10,3 13 7 39 21 WSW 1019,4 20 0 0,0
14.12.2017 21:00:00 12,1 10,2 19 11 39 21 WSW 1019,9 20 0 0,2
14.12.2017 20:00:00 12,2 10,3 17 9 33 18 WSW 1019,8 3,9 0 0,4
14.12.2017 19:00:00 12,1 10,5 16 9 35 19 WSW 1020,0 20 0 -
14.12.2017 18:00:00 11,8 10,6 13 7 31 17 WSW 1020,3 2,3 0 0,4
14.12.2017 17:00:00 11,7 10,2 13 7 27 15 SW 1020,8 6 0 0,4
14.12.2017 16:00:00 11,7 10,3 14 8 27 15 WSW 1020,9 4,7 0 0,2
14.12.2017 15:00:00 11,5 9,6 12 7 28 15 SW 1021,5 4,6 0 0,0
14.12.2017 14:00:00 11,8 9,2 14 7 28 15 WSW 1022,4 6 0 0,0
14.12.2017 13:00:00 11,8 9,0 13 7 25 14 SW 1023,4 20 24 -
14.12.2017 12:00:00 11,5 8,5 10 6 22 12 WSW 1024,8 7 17 0,0
14.12.2017 11:00:00 10,4 7,7 9 5 19 10 SW 1025,4 20 2 0,0
14.12.2017 10:00:00 9,2 7,3 6 3 13 7 ESE 1025,5 20 0 0,0
14.12.2017 09:00:00 8,4 6,5 4 2 17 9 W 1025,8 20 0 0,0
14.12.2017 08:00:00 8,5 6,2 7 4 21 12 SSW 1025,2 19 0 0,0
14.12.2017 07:00:00 8,0 5,6 10 6 21 12 SSW 1025,5 20 0 -
14.12.2017 06:00:00 7,8 5,6 16 9 26 14 SW 1025,8 9 0 0,0
14.12.2017 05:00:00 8,1 4,1 2 1 13 7 SW 1026,4 20 0 0,0
14.12.2017 04:00:00 7,8 3,0 7 4 16 9 SW 1026,9 20 0 0,0
14.12.2017 03:00:00 7,7 2,5 6 3 18 10 S 1027,0 20 0 0,0
14.12.2017 02:00:00 8,3 2,9 5 3 19 11 WSW 1027,5 20 0 0,0
14.12.2017 01:00:00 8,7 2,1 8 4 24 13 WSW 1027,7 20 0 -
14.12.2017 00:00:00 9,1 1,7 12 7 26 14 SW 1027,9 20 0 0,0
13.12.2017 23:00:00 8,7 1,7 10 5 19 10 SW 1028,1 20 0 0,0
13.12.2017 22:00:00 9,1 1,5 9 5 16 9 WSW 1028,4 20 0 0,0
13.12.2017 21:00:00 8,8 1,3 4 2 12 7 S 1028,2 20 0 0,0
13.12.2017 20:00:00 8,8 1,3 8 4 13 7 SSW 1028,2 20 0 0,0
13.12.2017 19:00:00 8,3 1,7 4 2 13 7 SW 1028,3 20 0 -
13.12.2017 18:00:00 9,1 2,3 6 3 12 6 SSW 1027,9 20 24 0,0
13.12.2017 17:00:00 10,8 1,1 8 4 21 12 W 1027,9 20 60 0,0
13.12.2017 16:00:00 11,9 0,4 11 6 21 12 W 1027,3 20 60 0,0
13.12.2017 15:00:00 12,1 0,4 10 6 21 11 WSW 1027,7 20 60 0,0
13.12.2017 14:00:00 11,6 3,0 3 1 10 5 SE 1028,4 20 60 0,0
13.12.2017 13:00:00 8,6 2,7 6 3 10 6 N 1029,6 14 60 -
13.12.2017 12:00:00 5,7 1,3 3 2 9 5 ESE 1031,0 20 60 0,0
13.12.2017 11:00:00 2,0 1,1 3 2 8 4 W 1032,6 9 32 0,0
13.12.2017 10:00:00 0,3 -1,2 5 3 9 5 W 1032,2 0,2 43 0,0
13.12.2017 09:00:00 -1,0 -2,2 4 2 6 4 WNW 1030,5 20 0 0,0
13.12.2017 08:00:00 -1,0 -2,2 2 1 7 4 W 1030,2 20 0 0,0
13.12.2017 07:00:00 -0,6 -2,0 3 1 7 4 ENE 1030,4 20 0 -
13.12.2017 06:00:00 -0,1 -1,4 1 1 4 2 SSW 1029,6 20 0 0,0
13.12.2017 05:00:00 0,7 -0,5 2 1 6 4 SSW 1028,9 20 0 0,0
13.12.2017 04:00:00 0,9 -0,5 4 2 5 3 SW 1029,0 10 0 0,0
13.12.2017 03:00:00 0,7 -1,0 1 1 4 2 SSW 1028,3 20 0 0,0
13.12.2017 02:00:00 1,2 -0,7 2 1 7 4 S 1028,1 20 0 0,0
13.12.2017 01:00:00 1,7 -1,0 3 1 5 3 SW 1027,4 20 0 -
13.12.2017 00:00:00 2,0 -0,7 1 1 9 5 S 1026,9 20 0 0,0
12.12.2017 23:00:00 2,3 -1,0 1 1 5 3 NNW 1026,4 20 0 0,0
12.12.2017 22:00:00 3,0 -0,7 4 2 8 5 SE 1025,3 20 0 0,0
12.12.2017 21:00:00 4,0 -1,0 6 3 11 6 SSE 1024,7 20 0 0,0
12.12.2017 20:00:00 5,1 -0,7 3 1 8 4 WSW 1024,2 20 0 0,0
12.12.2017 19:00:00 6,6 -1,2 6 3 10 5 WSW 1022,6 20 0 -
12.12.2017 18:00:00 7,3 -1,4 7 4 10 5 SW 1022,0 20 25 0,0
12.12.2017 17:00:00 11,7 -2,2 3 2 10 5 W 1020,3 20 60 0,0
12.12.2017 16:00:00 11,6 -2,7 5 3 13 7 W 1019,9 20 60 0,0
12.12.2017 15:00:00 11,0 -3,9 6 4 14 7 WNW 1019,5 20 60 0,0
12.12.2017 14:00:00 10,2 -2,5 6 4 16 8 W 1019,3 20 60 0,0
12.12.2017 13:00:00 9,2 -2,2 5 3 10 6 W 1019,4 20 60 -
12.12.2017 12:00:00 8,3 -1,4 2 1 6 4 NE 1019,9 20 60 0,0
12.12.2017 11:00:00 6,7 0,2 3 1 5 3 NE 1019,3 15 60 0,0
12.12.2017 10:00:00 3,6 0,0 3 2 8 5 SE 1018,9 20 59 0,0
12.12.2017 09:00:00 -0,1 -2,0 1 1 5 3 SSW 1018,9 20 0 0,0
12.12.2017 08:00:00 0,5 -1,7 1 1 9 5 SE 1018,1 20 0 0,0
12.12.2017 07:00:00 1,2 -1,0 4 2 9 5 S 1016,6 20 0 -
12.12.2017 06:00:00 2,2 -0,7 5 3 9 5 SE 1015,1 20 0 0,0
12.12.2017 05:00:00 1,9 -0,3 3 2 6 3 SE 1014,6 20 0 0,0
12.12.2017 04:00:00 2,8 0,4 4 2 10 5 SSE 1013,1 20 0 0,0
12.12.2017 03:00:00 3,2 1,5 3 2 9 5 S 1011,7 20 0 0,0

tt = Température de l'air
td = dewpoint
ff = Vitesse du vent
fx = gusts
dd = Direction du vent
ppp = reduced air pressure
vv = visibility
sd = Ensoleillement
rr = Quantités de précipitations

stations d'obs. à proximité